FW1873 Weather Reports


Display with metric or nautical units.
time (UTC)temp
F
wind
direction
speed
MPH
gust
MPH
rain 1hr
in
rain 24hr
in
rain mn
in
humidity
%
barometer
mb
20210731063144 67 0.0 0.0 0.00 0.00 0.00 75 1042.3
20210731062141 67 68 0.0 1.0 0.00 0.00 0.00 75 1042.3
20210731060938 67 68 0.0 1.0 0.00 0.00 0.00 74 1042.3
20210731060205 68 0.0 0.0 0.00 0.00 0.00 74 1042.6
20210731054932 68 0.0 0.0 0.00 0.00 0.00 74 1042.6
20210731053929 69 0.0 0.0 0.00 0.00 0.00 74 1042.6
20210731052927 69 23 1.0 1.0 0.00 0.00 0.00 74 1042.6
20210731051924 68 0.0 1.0 0.00 0.00 0.00 74 1043.0
20210731050922 69 0.0 0.0 0.00 0.00 0.00 74 1043.0
20210731045819 69 0.0 0.0 0.00 0.00 0.00 74 1043.0
20210731044847 69 0.0 0.0 0.00 0.00 0.00 72 1043.0
20210731043914 68 0.0 0.0 0.00 0.00 0.00 72 1043.3
20210731042540 68 0.0 0.0 0.00 0.00 0.00 72 1043.3
20210731041539 68 23 0.0 1.0 0.00 0.00 0.00 72 1043.3
20210731040507 68 0.0 0.0 0.00 0.00 0.00 72 1043.3
20210731035306 68 0.0 0.0 0.00 0.00 0.00 72 1043.3
20210731034232 68 23 0.0 1.0 0.00 0.00 0.00 71 1043.3
20210731033129 68 0.0 0.0 0.00 0.00 0.00 71 1043.0
20210731032127 68 0.0 0.0 0.00 0.00 0.00 70 1043.3
20210731031125 69 0.0 0.0 0.00 0.00 0.00 70 1043.3
20210731030122 69 0.0 0.0 0.00 0.00 0.00 70 1043.3
20210731025250 69 0.0 0.0 0.00 0.00 0.00 69 1043.3
20210731024148 69 0.0 0.0 0.00 0.00 0.00 68 1043.0
20210731022444 69 0.0 0.0 0.00 0.00 0.00 66 1043.0
20210731021242 70 0.0 0.0 0.00 0.00 0.00 66 1043.0
20210731020310 71 0.0 0.0 0.00 0.00 0.00 65 1042.6
20210731015208 71 0.0 0.0 0.00 0.00 0.00 65 1042.6
20210731014237 71 0.0 0.0 0.00 0.00 0.00 64 1042.3
20210731013405 71 0.0 0.0 0.00 0.00 0.00 63 1042.3
20210731012133 72 0.0 0.0 0.00 0.00 0.00 63 1042.3
20210731010900 73 0 0.0 1.0 0.00 0.00 0.00 62 1042.3
20210731005857 73 0.0 1.0 0.00 0.00 0.00 61 1042.3
20210731004853 74 315 1.0 3.0 0.00 0.00 0.00 60 1041.9
20210731003851 74 23 1.0 1.0 0.00 0.00 0.00 58 1042.3
20210731002847 75 315 1.0 3.0 0.00 0.00 0.00 57 1041.9
20210731001844 76 0 0.0 1.0 0.00 0.00 0.00 56 1041.9
20210731000810 76 0 1.0 1.0 0.00 0.00 0.00 54 1041.9
20210730235637 77 338 1.0 3.0 0.00 0.00 0.00 54 1041.9
20210730234633 77 0.0 1.0 0.00 0.00 0.00 53 1041.9
20210730233630 78 298 0.0 1.0 0.00 0.00 0.00 52 1041.9
20210730232625 79 94 1.0 3.0 0.00 0.00 0.00 51 1041.9
20210730231651 79 0 2.0 3.0 0.00 0.00 0.00 50 1041.9
20210730230617 80 336 2.0 5.0 0.00 0.00 0.00 49 1041.9
20210730225643 81 0 0.0 1.0 0.00 0.00 0.00 48 1042.3
20210730224640 83 0 1.0 4.0 0.00 0.00 0.00 45 1042.3
20210730223636 85 11 1.0 3.0 0.00 0.00 0.00 47 1042.3
20210730222631 86 333 1.0 3.0 0.00 0.00 0.00 48 1042.3
20210730221628 86 299 1.0 3.0 0.00 0.00 0.00 47 1042.3
20210730220624 87 23 2.0 4.0 0.00 0.00 0.00 47 1041.9
20210730215648 87 277 1.0 3.0 0.00 0.00 0.00 48 1042.3
20210730214645 87 350 1.0 1.0 0.00 0.00 0.00 49 1042.3
20210730213641 87 9 1.0 3.0 0.00 0.00 0.00 49 1041.9
20210730212636 87 0 2.0 3.0 0.00 0.00 0.00 48 1041.9
20210730211632 87 0 2.0 3.0 0.00 0.00 0.00 49 1041.9
20210730210629 87 9 1.0 3.0 0.00 0.00 0.00 49 1041.9
20210730205655 87 0 3.0 5.0 0.00 0.00 0.00 49 1041.9
20210730204622 87 293 2.0 5.0 0.00 0.00 0.00 50 1041.9
20210730203618 87 31 1.0 3.0 0.00 0.00 0.00 49 1042.1
20210730202643 87 36 3.0 4.0 0.00 0.00 0.00 47 1041.9
20210730201640 87 158 1.0 1.0 0.00 0.00 0.00 49 1041.9
20210730200637 87 348 2.0 4.0 0.00 0.00 0.00 50 1041.9
20210730195633 87 83 2.0 4.0 0.00 0.00 0.00 50 1041.9
20210730194629 87 0 2.0 3.0 0.00 0.00 0.00 49 1041.9
20210730193656 87 68 3.0 5.0 0.00 0.00 0.00 51 1041.9
20210730192621 86 0 3.0 4.0 0.00 0.00 0.00 53 1041.9
20210730191648 87 0 1.0 3.0 0.00 0.00 0.00 54 1042.3
20210730190644 86 52 3.0 5.0 0.00 0.00 0.00 51 1042.3
20210730185641 86 321 2.0 5.0 0.00 0.00 0.00 53 1042.3
20210730184637 86 35 3.0 8.0 0.00 0.00 0.00 54 1042.3
20210730183634 86 158 1.0 3.0 0.00 0.00 0.00 54 1042.3
20210730182629 86 346 2.0 4.0 0.00 0.00 0.00 52 1042.3
20210730181625 86 23 2.0 4.0 0.00 0.00 0.00 56 1042.3
20210730180622 85 57 2.0 4.0 0.00 0.00 0.00 58 1042.3
20210730175648 85 234 2.0 4.0 0.00 0.00 0.00 58 1042.3
20210730174645 85 0 2.0 3.0 0.00 0.00 0.00 59 1042.3
20210730173642 85 269 2.0 7.0 0.00 0.00 0.00 60 1042.3
20210730172636 85 315 2.0 3.0 0.00 0.00 0.00 60 1042.3
20210730171633 84 10 2.0 3.0 0.00 0.00 0.00 61 1042.6
20210730170629 84 358 2.0 8.0 0.00 0.00 0.00 61 1042.6
20210730165625 84 286 1.0 1.0 0.00 0.00 0.00 62 1042.6
20210730164652 84 270 1.0 3.0 0.00 0.00 0.00 61 1042.6
20210730163648 83 12 2.0 4.0 0.00 0.00 0.00 62 1042.6
20210730162643 83 5 1.0 3.0 0.00 0.00 0.00 65 1042.6
20210730161640 81 11 4.0 5.0 0.00 0.00 0.00 62 1042.6
20210730160636 82 32 1.0 3.0 0.00 0.00 0.00 65 1042.8
20210730155633 82 45 0.0 1.0 0.00 0.00 0.00 64 1042.6
20210730154629 82 0 1.0 3.0 0.00 0.00 0.00 66 1042.6
20210730153626 82 309 2.0 4.0 0.00 0.00 0.00 64 1042.6
20210730152622 81 6 2.0 3.0 0.00 0.00 0.00 65 1042.4
20210730151618 82 68 3.0 5.0 0.00 0.00 0.00 64 1042.3
20210730150643 82 338 2.0 3.0 0.00 0.00 0.00 69 1042.3
20210730145640 81 30 1.0 1.0 0.00 0.00 0.00 68 1042.3
20210730144636 81 335 1.0 1.0 0.00 0.00 0.00 70 1042.1
20210730143703 80 0 2.0 4.0 0.00 0.00 0.00 71 1041.9
20210730142629 79 0 0.0 1.0 0.00 0.00 0.00 69 1041.9
20210730141625 79 23 2.0 4.0 0.00 0.00 0.00 72 1041.9
20210730140622 78 0 1.0 3.0 0.00 0.00 0.00 73 1041.9
20210730135648 77 23 2.0 3.0 0.00 0.00 0.00 74 1041.9
20210730134644 77 45 2.0 7.0 0.00 0.00 0.00 75 1041.9
20210730133641 76 23 3.0 5.0 0.00 0.00 0.00 77 1041.9
20210730132638 76 45 3.0 7.0 0.00 0.00 0.00 75 1041.9
20210730131634 76 23 2.0 3.0 0.00 0.00 0.00 80 1041.9
20210730130631 75 23 1.0 5.0 0.00 0.00 0.00 82 1041.9
20210730125627 74 23 2.0 4.0 0.00 0.00 0.00 84 1041.6
20210730124624 74 23 2.0 4.0 0.00 0.00 0.00 85 1041.6
20210730123650 73 23 1.0 3.0 0.00 0.00 0.00 85 1041.6
20210730122646 73 23 2.0 3.0 0.00 0.00 0.00 85 1041.6
20210730121643 73 23 1.0 3.0 0.00 0.00 0.00 85 1041.6
20210730120639 72 0.0 0.0 0.00 0.00 0.00 86 1041.6
20210730115636 72 0.0 1.0 0.00 0.00 0.00 85 1041.6
20210730114703 72 23 2.0 3.0 0.00 0.00 0.00 85 1041.2
20210730113630 72 23 0.0 1.0 0.00 0.00 0.00 85 1041.2
20210730112626 72 23 0.0 1.0 0.00 0.00 0.00 86 1041.2
20210730111653 72 23 0.0 1.0 0.00 0.00 0.00 86 1041.2
20210730110649 72 23 1.0 3.0 0.00 0.00 0.00 86 1041.2
20210730105645 72 23 2.0 4.0 0.00 0.00 0.00 85 1040.8
20210730104612 72 23 1.0 3.0 0.00 0.00 0.00 85 1040.5
20210730103538 72 0.0 1.0 0.00 0.00 0.00 85 1040.5
20210730102535 72 23 0.0 1.0 0.00 0.00 0.00 85 1040.5
20210730101532 72 23 1.0 3.0 0.00 0.00 0.00 85 1040.5
20210730100558 73 23 0.0 1.0 0.00 0.00 0.00 85 1040.1
20210730095555 73 23 0.0 1.0 0.00 0.00 0.00 85 1040.1
20210730094552 73 23 2.0 3.0 0.00 0.00 0.00 85 1040.5
20210730093549 73 23 0.0 1.0 0.00 0.00 0.00 85 1040.1
20210730092614 73 23 1.0 1.0 0.00 0.00 0.00 86 1040.1
20210730091542 73 0.0 1.0 0.00 0.00 0.00 86 1039.8
20210730090439 73 23 1.0 1.0 0.00 0.00 0.00 86 1039.8
20210730085506 73 23 1.0 1.0 0.00 0.00 0.00 86 1039.5
20210730084433 73 0.0 1.0 0.00 0.00 0.00 87 1039.5
20210730083430 73 23 0.0 1.0 0.00 0.00 0.00 87 1039.8
20210730082427 73 23 1.0 1.0 0.00 0.00 0.00 87 1039.5
20210730081454 73 0.0 0.0 0.00 0.00 0.00 87 1039.5
20210730080451 73 23 1.0 1.0 0.00 0.00 0.00 87 1039.5
20210730075418 73 23 0.0 1.0 0.00 0.00 0.00 86 1039.5
20210730074544 73 0.0 0.0 0.00 0.00 0.00 87 1039.5
20210730073512 73 0.0 0.0 0.00 0.00 0.00 86 1039.5
20210730072240 74 23 0.0 1.0 0.00 0.00 0.00 86 1039.5
20210730071238 74 0.0 0.0 0.00 0.00 0.00 85 1039.5
20210730070135 75 0.0 0.0 0.00 0.00 0.00 85 1039.1
20210730065102 75 23 1.0 3.0 0.00 0.00 0.00 86 1039.1
20210730064058 75 23 0.0 1.0 0.00 0.00 0.00 86 1039.1